{"data":{"norad_id":63109,"epoch":"2026-09-21T00:30:06.541920Z","epoch_age_seconds":117254,"freshness":"FRESH","line1":"1 63109U 25039F   26264.02090905  .00126377  00000+0  97097-3 0  9993","line2":"2 63109  43.0008 139.6649 0002656 261.1110  98.9457 15.70899244 90331","mean_motion":15.70899244,"eccentricity":0.0002656,"inclination_deg":43.0008,"raan_deg":139.6649,"arg_perigee_deg":261.111,"mean_anomaly_deg":98.9457,"bstar":0.00097097,"rev_number":9033,"period_min":91.667241263247,"perigee_km":354.53706314778,"apogee_km":358.11440975338,"semimajor_km":6734.4627364506,"source":"CELESTRAK","updated_at":"2026-09-22T09:00:49.763209Z"}}